Weather History for KSLE - May, 2012

Change the Weather History Date:

Sunday, May 6, 2012

  Actual Average Record
Temperature  
Mean Temperature 53 °F 54 °F  
Max Temperature 67 °F 66 °F 90 °F (1987)
Min Temperature 38 °F 43 °F 30 °F (1984)
Degree Days  
Heating Degree Days 12 11  
Month to date heating degree days 94 69  
Since 1 July heating degree days 4219 4312  
Cooling Degree Days 0 0  
Month to date cooling degree days 0 0  
Year to date cooling degree days 2 0  
Growing Degree Days 2 (Base 50)    
Moisture  
Dew Point 42 °F    
Average Humidity 68    
Maximum Humidity 93    
Minimum Humidity 42    
Precipitation  
Precipitation 0.00 in 0.08 in 1.09 in (1963)
Month to date precipitation 0.86 0.44  
Year to date precipitation 28.38 17.76  
Snow  
Snow 0.00 in - - ()
Month to date snowfall 0.0  
Snow Depth 0.00 in    
Sea Level Pressure  
Sea Level Pressure 30.39 in    
Wind  
Wind Speed 6 mph (North)    
Max Wind Speed 15 mph    
Max Gust Speed 22 mph    
Visibility 10 miles    
Events      
T = Trace of Precipitation, MM = Missing Value Source: NWS Daily Summary

Daily Weather History Graph

Daily Weather History Graph

Search for Another Location

Airport or City:

Trip Planner

Search our weather history database for the weather conditions in past years. The results will help you decide how hot, cold, wet, or windy it might be!

Date:

Astronomy

May. 06, 2012 Rise Set
Actual Time 5:53 AM PDT 8:24 PM PDT
Civil Twilight 5:20 AM PDT 8:57 PM PDT
Nautical Twilight 4:39 AM PDT 9:38 PM PDT
Astronomical Twilight 3:52 AM PDT 10:26 PM PDT
Moon 9:39 PM PDT (5/6) 6:06 AM PDT (5/6)
Length of Visible Light 15h 36m
Length of Day
14h 30m
Full, 99% of the Moon is Illuminated
May 6
Full
May 12
Last Quarter
May 20
New
May 28
First Quarter
Jun 4
Full

Hourly Weather History & Observations

Time (PDT) Temp. Windchill Dew Point Humidity Pressure Visibility Wind Dir Wind Speed Gust Speed Precip Events Conditions
12:56 AM 43.0 °F 40.3 °F 39.9 °F 89% 30.48 in 10.0 mi NNE 4.6 mph - N/A   Clear
1:56 AM 42.1 °F 39.2 °F 39.0 °F 89% 30.46 in 10.0 mi NNW 4.6 mph - N/A   Clear
2:56 AM 42.1 °F - 39.0 °F 89% 30.45 in 10.0 mi Calm Calm - N/A   Clear
3:56 AM 42.1 °F 40.2 °F 39.0 °F 89% 30.45 in 10.0 mi NW 3.5 mph - N/A   Clear
4:56 AM 41.0 °F 38.0 °F 39.0 °F 93% 30.44 in 10.0 mi NW 4.6 mph - N/A   Clear
5:56 AM 41.0 °F 39.0 °F 39.0 °F 93% 30.44 in 10.0 mi NW 3.5 mph - N/A   Clear
6:20 AM 39.2 °F 37.0 °F 37.4 °F 93% 30.44 in 10.0 mi WNW 3.5 mph - N/A   Mostly Cloudy
6:56 AM 41.0 °F - 39.0 °F 93% 30.45 in 10.0 mi Calm Calm - N/A   Overcast
7:12 AM 42.8 °F 40.1 °F 39.2 °F 87% 30.44 in 10.0 mi NE 4.6 mph - N/A   Overcast
7:56 AM 44.1 °F 42.5 °F 41.0 °F 89% 30.44 in 7.0 mi North 3.5 mph - N/A   Overcast
8:56 AM 45.0 °F 40.1 °F 42.1 °F 90% 30.44 in 10.0 mi NNE 9.2 mph - N/A   Overcast
9:49 AM 48.2 °F - 42.8 °F 82% 30.44 in 10.0 mi NNE 5.8 mph - N/A   Overcast
9:56 AM 48.0 °F - 42.1 °F 80% 30.45 in 10.0 mi North 6.9 mph - N/A   Overcast
10:53 AM 53.6 °F - 44.6 °F 72% 30.43 in 10.0 mi Variable 3.5 mph - N/A   Scattered Clouds
10:56 AM 53.1 °F - 44.1 °F 71% 30.43 in 10.0 mi North 8.1 mph - N/A   Scattered Clouds
11:56 AM 55.9 °F - 45.0 °F 67% 30.42 in 10.0 mi NNW 8.1 mph - N/A   Clear
12:56 PM 59.0 °F - 44.1 °F 58% 30.41 in 10.0 mi North 6.9 mph - N/A   Clear
1:56 PM 61.0 °F - 44.1 °F 54% 30.39 in 10.0 mi North 8.1 mph - N/A   Clear
2:56 PM 63.0 °F - 45.0 °F 52% 30.38 in 10.0 mi NNW 9.2 mph - N/A   Partly Cloudy
3:56 PM 64.9 °F - 44.1 °F 47% 30.35 in 10.0 mi North 8.1 mph - N/A   Partly Cloudy
4:56 PM 66.9 °F - 43.0 °F 42% 30.32 in 10.0 mi North 8.1 mph - N/A   Clear
5:56 PM 66.0 °F - 44.1 °F 45% 30.31 in 10.0 mi North 8.1 mph - N/A   Clear
6:56 PM 66.0 °F - 43.0 °F 43% 30.30 in 10.0 mi NNE 10.4 mph - N/A   Clear
7:56 PM 63.0 °F - 43.0 °F 48% 30.28 in 10.0 mi North 9.2 mph - N/A   Clear
8:56 PM 57.9 °F - 43.0 °F 58% 30.29 in 10.0 mi North 6.9 mph - N/A   Clear
9:56 PM 57.9 °F - 41.0 °F 53% 30.30 in 10.0 mi NNW 4.6 mph - N/A   Clear
10:56 PM 52.0 °F - 44.1 °F 74% 30.30 in 10.0 mi Calm Calm - N/A   Clear
11:56 PM 50.0 °F - 42.1 °F 74% 30.30 in 10.0 mi Calm Calm - N/A   Clear